TimeEDT,TemperatureF,Dew PointF,Humidity,Sea Level PressureIn,VisibilityMPH,Wind Direction,Wind SpeedMPH,Gust SpeedMPH,PrecipitationIn,Events,Conditions,WindDirDegrees,DateUTC
12:15 AM,73.4,73.4,100,30.06,10.0,East,4.6,-,N/A,,Mostly Cloudy,80,2013-06-05 04:15:00
12:35 AM,73.4,73.4,100,30.05,10.0,ENE,4.6,-,N/A,,Overcast,70,2013-06-05 04:35:00
12:55 AM,73.4,73.4,100,30.05,10.0,ENE,4.6,-,N/A,,Overcast,70,2013-06-05 04:55:00
1:15 AM,73.4,73.4,100,30.05,10.0,East,4.6,-,N/A,,Overcast,80,2013-06-05 05:15:00
1:35 AM,73.4,73.4,100,30.05,10.0,East,5.8,-,N/A,,Overcast,80,2013-06-05 05:35:00
1:55 AM,73.4,73.4,100,30.05,10.0,East,6.9,-,N/A,,Overcast,80,2013-06-05 05:55:00
2:15 AM,73.4,73.4,100,30.04,10.0,ENE,4.6,-,N/A,,Mostly Cloudy,70,2013-06-05 06:15:00
2:35 AM,73.4,73.4,100,30.03,10.0,East,5.8,-,N/A,,Scattered Clouds,80,2013-06-05 06:35:00
2:55 AM,73.4,73.4,100,30.03,10.0,East,5.8,-,N/A,,Mostly Cloudy,90,2013-06-05 06:55:00
3:15 AM,73.4,73.4,100,30.03,10.0,East,8.1,-,N/A,,Overcast,100,2013-06-05 07:15:00
3:35 AM,73.4,73.4,100,30.02,10.0,East,6.9,-,N/A,Thunderstorm,Overcast,80,2013-06-05 07:35:00
3:55 AM,73.4,73.4,100,30.03,10.0,East,6.9,-,N/A,,Overcast,90,2013-06-05 07:55:00
4:15 AM,73.4,73.4,100,30.03,10.0,East,6.9,-,N/A,,Overcast,100,2013-06-05 08:15:00
4:35 AM,73.4,73.4,100,30.02,10.0,East,9.2,-,N/A,Thunderstorm,Overcast,80,2013-06-05 08:35:00
4:55 AM,73.4,73.4,100,30.03,10.0,East,9.2,-,N/A,Thunderstorm,Mostly Cloudy,80,2013-06-05 08:55:00
5:15 AM,73.4,73.4,100,30.03,10.0,East,8.1,-,N/A,Thunderstorm,Overcast,80,2013-06-05 09:15:00
5:35 AM,73.4,73.4,100,30.04,10.0,East,8.1,-,N/A,Thunderstorm,Thunderstorm,80,2013-06-05 09:35:00
5:55 AM,73.4,73.4,100,30.04,10.0,ENE,8.1,-,N/A,Rain,Light Rain,70,2013-06-05 09:55:00
6:15 AM,73.4,73.4,100,30.04,10.0,East,6.9,-,N/A,,Overcast,80,2013-06-05 10:15:00
6:35 AM,73.4,73.4,100,30.04,10.0,ENE,6.9,-,N/A,,Overcast,70,2013-06-05 10:35:00
6:55 AM,73.4,73.4,100,30.05,10.0,ENE,5.8,-,N/A,,Overcast,70,2013-06-05 10:55:00
7:15 AM,75.2,75.2,100,30.05,10.0,East,11.5,-,N/A,,Overcast,80,2013-06-05 11:15:00
7:35 AM,75.2,75.2,100,30.05,10.0,East,10.4,-,N/A,Thunderstorm,Overcast,90,2013-06-05 11:35:00
7:55 AM,75.2,75.2,100,30.05,10.0,East,9.2,-,N/A,,Overcast,80,2013-06-05 11:55:00
8:15 AM,77.0,77.0,100,30.05,10.0,East,11.5,-,N/A,,Mostly Cloudy,80,2013-06-05 12:15:00
8:35 AM,77.0,77.0,100,30.06,10.0,East,13.8,20.7,N/A,Thunderstorm,Overcast,90,2013-06-05 12:35:00
8:55 AM,77.0,77.0,100,30.07,10.0,East,12.7,17.3,N/A,,Overcast,80,2013-06-05 12:55:00
9:15 AM,77.0,75.2,94,30.06,10.0,East,12.7,19.6,N/A,,Overcast,90,2013-06-05 13:15:00
9:35 AM,77.0,73.4,89,30.07,10.0,East,9.2,19.6,N/A,Thunderstorm,Thunderstorm,80,2013-06-05 13:35:00
9:55 AM,77.0,73.4,89,30.07,10.0,East,12.7,17.3,N/A,Thunderstorm,Overcast,90,2013-06-05 13:55:00
10:15 AM,77.0,73.4,89,30.07,10.0,East,10.4,-,N/A,Thunderstorm,Overcast,80,2013-06-05 14:15:00
10:35 AM,77.0,73.4,89,30.07,10.0,East,10.4,-,N/A,Rain,Light Rain,90,2013-06-05 14:35:00
10:55 AM,75.2,75.2,100,30.07,10.0,East,12.7,-,N/A,,Light Drizzle,80,2013-06-05 14:55:00
11:15 AM,75.2,75.2,100,30.07,10.0,East,8.1,-,N/A,Thunderstorm,Unknown,80,2013-06-05 15:15:00
11:35 AM,75.2,75.2,100,30.07,10.0,East,12.7,-,N/A,,Overcast,90,2013-06-05 15:35:00
11:55 AM,77.0,77.0,100,30.06,10.0,East,12.7,17.3,N/A,,Overcast,80,2013-06-05 15:55:00
12:15 PM,77.0,75.2,94,30.07,10.0,ENE,12.7,18.4,N/A,Thunderstorm,Thunderstorm,70,2013-06-05 16:15:00
12:35 PM,77.0,75.2,94,30.07,10.0,East,11.5,-,N/A,,Overcast,80,2013-06-05 16:35:00
12:55 PM,77.0,75.2,94,30.07,10.0,East,12.7,17.3,N/A,,Overcast,90,2013-06-05 16:55:00
1:15 PM,77.0,75.2,94,30.07,10.0,East,11.5,18.4,N/A,,Overcast,100,2013-06-05 17:15:00
1:35 PM,77.0,75.2,94,30.06,10.0,East,12.7,18.4,N/A,,Overcast,90,2013-06-05 17:35:00
1:55 PM,77.0,73.4,89,30.06,10.0,East,10.4,-,N/A,,Overcast,90,2013-06-05 17:55:00
2:15 PM,77.0,73.4,89,30.05,10.0,East,11.5,17.3,N/A,,Overcast,90,2013-06-05 18:15:00
2:35 PM,77.0,73.4,89,30.04,10.0,East,11.5,18.4,N/A,,Overcast,90,2013-06-05 18:35:00
2:55 PM,78.8,75.2,89,30.03,10.0,East,12.7,20.7,N/A,,Overcast,90,2013-06-05 18:55:00
3:15 PM,77.0,73.4,89,30.03,10.0,East,12.7,19.6,N/A,,Overcast,90,2013-06-05 19:15:00
3:35 PM,78.8,73.4,83,30.03,10.0,East,12.7,16.1,N/A,,Overcast,80,2013-06-05 19:35:00
3:55 PM,78.8,73.4,83,30.02,10.0,East,13.8,18.4,N/A,,Overcast,80,2013-06-05 19:55:00
4:15 PM,77.0,73.4,89,30.03,10.0,East,12.7,18.4,N/A,,Overcast,100,2013-06-05 20:15:00
4:35 PM,77.0,73.4,89,30.02,10.0,East,11.5,-,N/A,,Overcast,90,2013-06-05 20:35:00
4:55 PM,77.0,73.4,89,30.01,10.0,East,10.4,-,N/A,Rain,Light Rain,90,2013-06-05 20:55:00
5:15 PM,77.0,73.4,89,30.01,10.0,East,11.5,19.6,N/A,,Mostly Cloudy,80,2013-06-05 21:15:00
5:35 PM,77.0,73.4,89,30.01,10.0,East,12.7,-,N/A,,Mostly Cloudy,100,2013-06-05 21:35:00
5:55 PM,77.0,73.4,89,30.01,10.0,East,11.5,-,N/A,,Mostly Cloudy,90,2013-06-05 21:55:00
6:15 PM,77.0,71.6,83,30.01,10.0,East,6.9,16.1,N/A,,Scattered Clouds,90,2013-06-05 22:15:00
6:35 PM,77.0,73.4,89,30.01,10.0,ENE,9.2,-,N/A,,Scattered Clouds,70,2013-06-05 22:35:00
6:55 PM,77.0,73.4,89,30.01,10.0,East,10.4,-,N/A,,Mostly Cloudy,100,2013-06-05 22:55:00
7:15 PM,75.2,71.6,89,30.00,10.0,East,5.8,-,N/A,,Scattered Clouds,80,2013-06-05 23:15:00
7:35 PM,75.2,73.4,94,30.00,10.0,ENE,5.8,-,N/A,,Clear,70,2013-06-05 23:35:00
7:55 PM,75.2,75.2,100,30.00,10.0,East,5.8,-,N/A,,Clear,90,2013-06-05 23:55:00
8:15 PM,75.2,75.2,100,30.00,10.0,East,3.5,-,N/A,,Clear,90,2013-06-06 00:15:00
8:35 PM,73.4,73.4,100,30.00,10.0,East,5.8,-,N/A,,Clear,100,2013-06-06 00:35:00
8:55 PM,75.2,75.2,100,30.00,10.0,ESE,4.6,-,N/A,,Scattered Clouds,110,2013-06-06 00:55:00
9:15 PM,75.2,75.2,100,30.00,10.0,East,8.1,-,N/A,,Scattered Clouds,100,2013-06-06 01:15:00
9:35 PM,75.2,75.2,100,30.01,10.0,East,8.1,-,N/A,,Scattered Clouds,100,2013-06-06 01:35:00
9:55 PM,75.2,75.2,100,30.01,10.0,ESE,6.9,-,N/A,,Scattered Clouds,110,2013-06-06 01:55:00
10:15 PM,75.2,75.2,100,30.01,10.0,ESE,5.8,-,N/A,,Scattered Clouds,110,2013-06-06 02:15:00
10:35 PM,75.2,75.2,100,30.01,10.0,ESE,4.6,-,N/A,,Scattered Clouds,110,2013-06-06 02:35:00
10:55 PM,75.2,75.2,100,30.01,10.0,ESE,4.6,-,N/A,,Mostly Cloudy,110,2013-06-06 02:55:00
11:15 PM,75.2,75.2,100,30.01,10.0,ESE,5.8,-,N/A,,Light Drizzle,110,2013-06-06 03:15:00
11:35 PM,75.2,75.2,100,30.01,10.0,ESE,6.9,-,N/A,,Scattered Clouds,120,2013-06-06 03:35:00
11:55 PM,73.4,73.4,100,30.01,10.0,South,6.9,-,N/A,Rain,Light Rain,170,2013-06-06 03:55:00